Tekamah, NE

12:54 PM CDT on August 19, 2017 (GMT -0500)
Tekamah

Weather History for KTQE - March, 2012

Change the Weather History Date:

Friday, March 16, 2012

  Actual Average Record
Temperature  
Mean Temperature 62 °F -  
Max Temperature 82 °F 47 °F 91 °F (2015)
Min Temperature 45 °F 26 °F 6 °F (1962)
Degree Days  
Heating Degree Days 2    
Growing Degree Days 12 (Base 50)    
Moisture  
Dew Point 52 °F    
Average Humidity 78    
Maximum Humidity 100    
Minimum Humidity 39    
Precipitation  
Precipitation 0.00 in - - ()
Sea Level Pressure  
Sea Level Pressure 29.86 in    
Wind  
Wind Speed 4 mph (South)    
Max Wind Speed 20 mph    
Max Gust Speed 23 mph    
Visibility 3 miles    
Events Fog    
Averages and records for this station are not official NWS values.
T = Trace of Precipitation, MM = Missing Value Source: NWS Daily Summary

Daily Weather History Graph

Daily Weather History Graph

Search for Another Location

Airport or City:

Trip Planner

Search our weather history database for the weather conditions in past years. The results will help you decide how hot, cold, wet, or windy it might be!

Date:

Astronomy

Mar. 16, 2012 Rise Set
Actual Time 7:33 AM CDT 7:33 PM CDT
Civil Twilight 7:06 AM CDT 8:00 PM CDT
Nautical Twilight 6:33 AM CDT 8:33 PM CDT
Astronomical Twilight 6:01 AM CDT 9:06 PM CDT
Moon 3:57 AM CDT (3/16) 1:50 PM CDT (3/16)
Length of Visible Light 12h 54m
Length of Day
11h 59m
Waning Crescent, 32% of the Moon is Illuminated
Mar 16
Waning Crescent
Mar 22
New
Mar 30
First Quarter
Apr 6
Full
Apr 13
Last Quarter

Hourly Weather History & Observations

Time (CDT) Temp. Windchill Dew Point Humidity Pressure Visibility Wind Dir Wind Speed Gust Speed Precip Events Conditions
12:08 AM 57.2 °F - 55.4 °F 94% 29.93 in 2.5 mi Calm Calm - N/A   Clear
12:41 AM 53.6 °F - 53.6 °F 100% 29.92 in 1.0 mi Calm Calm - N/A   Clear
12:54 AM 53.1 °F - 52.0 °F 96% 29.91 in 0.5 mi Calm Calm - N/A Fog Fog
1:06 AM 55.4 °F - 53.6 °F 94% 29.92 in 1.5 mi Calm Calm - N/A   Clear
1:20 AM 51.8 °F - 50.0 °F 94% 29.92 in 0.8 mi South 5.8 mph - N/A   Clear
1:42 AM 50.0 °F - 48.2 °F 94% 29.92 in 1.2 mi SSW 3.5 mph - N/A   Partly Cloudy
1:45 AM 50.0 °F - 48.2 °F 94% 29.92 in 0.8 mi Calm Calm - N/A   Mist
1:52 AM 50.0 °F - 48.2 °F 94% 29.92 in 0.2 mi WSW 4.6 mph - N/A Fog Fog
1:54 AM 50.0 °F - 48.0 °F 93% 29.90 in 0.2 mi WSW 3.5 mph - N/A Fog Fog
2:54 AM 48.0 °F - 46.9 °F 96% 29.90 in 0.2 mi Calm Calm - N/A Fog Fog
3:54 AM 48.0 °F - 46.0 °F 93% 29.89 in 0.2 mi Calm Calm - N/A Fog Fog
5:54 AM 45.0 °F 43.5 °F 44.1 °F 97% 29.89 in 0.2 mi NW 3.5 mph - N/A Fog Fog
6:54 AM 45.0 °F 43.5 °F 44.1 °F 97% 29.90 in 0.2 mi North 3.5 mph - N/A Fog Fog
7:54 AM 46.0 °F - 44.1 °F 93% 29.90 in 0.2 mi Calm Calm - N/A Fog Fog
8:54 AM 50.0 °F - 48.9 °F 96% 29.90 in 0.2 mi Calm Calm - N/A Fog Fog
9:54 AM 55.0 °F - 54.0 °F 96% 29.90 in 0.2 mi SSE 5.8 mph - N/A Fog Fog
10:26 AM 57.2 °F - 55.4 °F 94% 29.91 in 1.5 mi SSE 4.6 mph - N/A   Mostly Cloudy
10:34 AM 59.0 °F - 55.4 °F 88% 29.91 in 2.0 mi South 5.8 mph - N/A   Scattered Clouds
10:54 AM 64.0 °F - 57.0 °F 78% 29.89 in 2.5 mi South 8.1 mph - N/A   Haze
11:05 AM 64.4 °F - 57.2 °F 77% 29.91 in 3.0 mi SSE 6.9 mph - N/A   Haze
11:54 AM 72.0 °F - 59.0 °F 64% 29.86 in 4.0 mi SE 6.9 mph - N/A   Haze
12:54 PM 77.0 °F - 60.1 °F 56% 29.83 in 6.0 mi South 11.5 mph - N/A   Haze
1:54 PM 75.9 °F - 59.0 °F 56% 29.82 in 5.0 mi South 19.6 mph - N/A   Haze
2:54 PM 78.1 °F - 57.0 °F 48% 29.78 in 7.0 mi South 11.5 mph - N/A   Clear
3:54 PM 80.1 °F - 57.0 °F 45% 29.77 in 8.0 mi South 16.1 mph - N/A   Clear
4:54 PM 80.1 °F - 55.0 °F 42% 29.76 in 9.0 mi SSE 17.3 mph 23.0 mph N/A   Clear
5:54 PM 80.1 °F - 54.0 °F 40% 29.75 in 10.0 mi SSE 16.1 mph - N/A   Clear
6:54 PM 79.0 °F - 52.0 °F 39% 29.75 in 10.0 mi SSE 12.7 mph - N/A   Clear
7:54 PM 72.0 °F - 53.1 °F 51% 29.76 in 10.0 mi SSE 12.7 mph - N/A   Clear
8:54 PM 64.0 °F - 52.0 °F 65% 29.78 in 6.0 mi South 6.9 mph - N/A   Haze
9:54 PM 59.0 °F - 50.0 °F 72% 29.78 in 6.0 mi South 6.9 mph - N/A   Haze
10:54 PM 61.0 °F - 53.1 °F 75% 29.78 in 6.0 mi South 9.2 mph - N/A   Haze
11:54 PM 64.0 °F - 57.0 °F 78% 29.78 in 7.0 mi South 10.4 mph - N/A   Clear